Location: Curupao
(10.4996°N, 66.6442°W)
Time: 23:10:10
(UTC+00:00)

Hubble Space Telescope - Pass Details

Date: 23 May 2024
Orbit: 510 x 514 km, 28.5° (Epoch: 25 June)

Event Time Altitude Azimuth Distance (km) Brightness Sun altitude
Rises 23:59:06 0° 244° (WSW) 2,608 4.8 -18.0°
Reaches altitude 10° 00:01:20 10° 246° (WSW) 1,721 3.9 -18.5°
Maximum altitude 00:05:18 77° 332° (NNW) 523 0.7 -19.4°
Enters shadow 00:06:53 35° 53° (NE) 836 1.5 -19.7°
